Northeast Philadelphia, PA

4:41 AM EDT on June 24, 2017 (GMT -0400)
Northeast Philadelphia

Weather History for KPNE - February, 2013

Change the Weather History Date:

Monday, February 4, 2013

  Actual Average Record
Temperature  
Mean Temperature 24 °F -  
Max Temperature 30 °F 40 °F 60 °F (2006)
Min Temperature 19 °F 24 °F 18 °F (2007)
Degree Days  
Heating Degree Days 40    
Moisture  
Dew Point 11 °F    
Average Humidity 53    
Maximum Humidity 72    
Minimum Humidity 43    
Precipitation  
Precipitation 0.00 in - - ()
Sea Level Pressure  
Sea Level Pressure 30.00 in    
Wind  
Wind Speed 11 mph (West)    
Max Wind Speed 18 mph    
Max Gust Speed 28 mph    
Visibility 10 miles    
Events      
Averages and records for this station are not official NWS values.
T = Trace of Precipitation, MM = Missing Value Source: NWS Daily Summary

Daily Weather History Graph

Daily Weather History Graph

Search for Another Location

Airport or City:

Trip Planner

Search our weather history database for the weather conditions in past years. The results will help you decide how hot, cold, wet, or windy it might be!

Date:

Astronomy

Feb. 04, 2013 Rise Set
Actual Time 7:05 AM EST 5:23 PM EST
Civil Twilight 6:37 AM EST 5:51 PM EST
Nautical Twilight 6:04 AM EST 6:23 PM EST
Astronomical Twilight 5:33 AM EST 6:55 PM EST
Moon 1:38 AM EST (2/4) 11:44 AM EST (2/4)
Length of Visible Light 11h 14m
Length of Day
10h 17m
Last Quarter, 37% of the Moon is Illuminated
Feb 4
Last Quarter
Feb 10
New
Feb 17
First Quarter
Feb 25
Full
Mar 4
Last Quarter

Hourly Weather History & Observations

Time (EST) Temp. Windchill Dew Point Humidity Pressure Visibility Wind Dir Wind Speed Gust Speed Precip Events Conditions
12:54 AM 26.1 °F 15.0 °F 10.9 °F 53% 29.91 in 10.0 mi WNW 12.7 mph 23.0 mph 0.00 in   Mostly Cloudy
1:54 AM 25.0 °F 12.6 °F 9.0 °F 51% 29.93 in 10.0 mi WNW 15.0 mph 21.9 mph N/A   Clear
2:54 AM 23.0 °F 10.1 °F 8.1 °F 53% 29.94 in 10.0 mi WNW 15.0 mph 20.7 mph N/A   Clear
3:54 AM 21.9 °F 11.7 °F 9.0 °F 58% 29.97 in 10.0 mi West 9.2 mph - N/A   Clear
5:54 AM 21.9 °F 11.7 °F 9.0 °F 58% 30.00 in 10.0 mi WNW 9.2 mph - N/A   Clear
6:54 AM 19.9 °F 11.1 °F 9.0 °F 62% 30.01 in 10.0 mi West 6.9 mph - N/A   Clear
7:54 AM 21.9 °F 11.0 °F 10.0 °F 60% 30.04 in 10.0 mi West 10.4 mph - N/A   Clear
8:54 AM 24.1 °F 12.5 °F 10.9 °F 57% 30.07 in 10.0 mi West 12.7 mph - N/A   Clear
9:54 AM 26.1 °F 14.0 °F 9.0 °F 49% 30.06 in 10.0 mi WNW 15.0 mph 24.2 mph N/A   Clear
10:54 AM 27.0 °F 15.6 °F 9.0 °F 47% 30.06 in 10.0 mi West 13.8 mph 24.2 mph N/A   Partly Cloudy
11:54 AM 28.9 °F 16.5 °F 12.0 °F 49% 30.05 in 10.0 mi West 18.4 mph 27.6 mph N/A   Partly Cloudy
12:54 PM 28.0 °F 17.0 °F 10.0 °F 47% 30.02 in 10.0 mi West 13.8 mph 23.0 mph N/A   Partly Cloudy
1:54 PM 30.0 °F 19.5 °F 10.0 °F 43% 30.00 in 10.0 mi West 13.8 mph - N/A   Clear
2:54 PM 30.0 °F 19.5 °F 10.9 °F 45% 30.00 in 10.0 mi WNW 13.8 mph 18.4 mph N/A   Partly Cloudy
3:54 PM 30.0 °F 20.5 °F 10.9 °F 45% 30.00 in 10.0 mi WNW 11.5 mph - N/A   Clear
4:54 PM 28.9 °F 21.1 °F 10.9 °F 47% 30.00 in 10.0 mi West 8.1 mph - N/A   Clear
5:54 PM 27.0 °F 21.6 °F 10.9 °F 51% 30.00 in 10.0 mi WSW 4.6 mph - N/A   Clear
6:54 PM 25.0 °F - 10.9 °F 55% 30.01 in 10.0 mi Calm Calm - N/A   Clear
7:54 PM 26.6 °F - 12.2 °F 55% 30.00 in 10.0 mi Calm Calm - N/A   Clear
8:54 PM 28.0 °F - 14.0 °F 56% 30.00 in 10.0 mi Calm Calm - N/A   Mostly Cloudy
9:54 PM 28.9 °F 25.2 °F 15.1 °F 56% 30.00 in 10.0 mi SSW 3.5 mph - N/A   Overcast
10:54 PM 28.9 °F 23.9 °F 16.0 °F 58% 29.99 in 10.0 mi South 4.6 mph - N/A   Overcast
11:54 PM 28.9 °F - 21.0 °F 72% 29.97 in 10.0 mi Calm Calm - N/A   Overcast